Weather in White House Bay

Jamaica     18°30′21″N   77°54′45″W
temp.,
°C
wind,
m/s
gust,
m/s
humid.,
%
clouds,
%
prec.,
mm/h
press.,
hPa
HPBL,
m
24 july, sat
sat2401:00+26e338027 0.0 1015357
04:00+25ese338133 0.0 1014215
07:00+26e3483100 0.0 1015255
10:00+29ene457066 0.0 1016683
13:00+28nne667799 0.1 1014498
16:00+28ene33749 2.4 1014404
19:00+27ne227776 4.6 1014301
22:00+27ese227822 0.2 1015291
25 july, sun
sun2501:00+26se22805 0.2 1013173
04:00+26s117819 0.1 1013142
07:00+26se117673 0.1 1013160
10:00+28n2167100 0.0 1014402
13:00+28nne437272 0.1 1013498
16:00+28n117277 1.5 1012493
19:00+27ne117363 3.9 1013248
22:00+26se227885 3.4 1015115
26 july, mon
mon2601:00+26sse227821 4.3 1014155
04:00+26se227713 0.0 1013169
07:00+26e34795 0.0 1013242
10:00+28ene34705 0.0 1014629
13:00+28ne667616 0.1 1014464
16:00+29ene337248 2.3 1013432
19:00+28e227578 2.8 1014323
22:00+27ese337792 0.3 1015260
27 july, tue
tue2701:00+27se237889 0.9 1014143
04:00+26se227698 0.0 1014161
07:00+26se2276100 0.0 1015152
10:00+29ne2364100 0.0 1016436
13:00+27ene6781100 0.6 1015338
16:00+28e3376100 7.5 1014150
19:00+28e237683 9.4 1014266
22:00+28s2276100 0.8 1016176
28 july, wed
wed2801:00+27se1176100 0.9 1014119
04:00+26ese3481100 0.0 1014331
07:00+26e3482100 0.0 1014456
10:00+29ene4570100 0.0 1015787
13:00+28ne777573 0.1 1014575
16:00+28ene897758 0.5 1012797
19:00+27e567613 0.6 1013549
22:00+26ese458128 0.1 1015390